PAGEOS 1 DEB, 2511

Orbit data source: Space-Track

PAGEOS 1 DEB, 2511 is space debris in LEO originally from a launch on Fri, 24 Jun 1966 UTC launched from the Air Force Western Test Range (AFWTR). Debris objects in space refer to the collection of defunct objects orbiting the Earth. Examples of debris include non-operational satellites, rocket bodies, and fragments generated from explosions, collisions, or faulty payload assembly.

Loading next visibility...
Identifier
2511, 1966-056D
Orbit
LEO
Country
Flag of USUS
Related business
Manufacturer
Goodyear
Mission
Spacecraft
Bus & Motor
ECHO CANISTER, Unknown motor
Mass
9 kg wet, 9 kg dry
Launch date (UTC)
1966-06-24 (59 years ago)
Launch vehicle
Unknown
Launch site
Air Force Western Test Range (AFWTR)
Object type
Payload
Rocket body
Debris
Shape & HBR
Unknown
Radar Cross Section
Large (>1 m²)

Expand to show TLE details & history
Last TLE update: 4 days ago

TLE from 4 days ago
0 PAGEOS 1 DEB
1 02511U 66056D   25301.80773231  .00000030  00000-0  27369-1 0  9995
2 02511  86.9894 245.0164 0011688  20.6745 339.4533  7.93367994334237
Epoch: 2025-10-28T19:23Z
TLE epoch observation values (Epoch: 2025-10-28T19:23:08.071Z)
Latitude
0.00006°
Longitude
-83.15714°
Altitude
4,231.346 km
Speed
6.133 km/s
True Right ascension
16h 20m 03s
True Declination
0° 00' 00"
Sunlit
Object was in daylight at epoch
Visualization orbit readout
Latitude
Unknown
Longitude
Unknown
Altitude
Unknown
Speed
Unknown
Apparent Right ascension
Unknown
Apparent Declination
Unknown
Sunlit
N/A
Visualization observer readout
Local Sidereal Time
17:32:44
Azimuth
Unknown
Elevation
Unknown
Doppler factor
Unknown
Orbital elements
Apogee altitude
4,251.266 km
Perigee altitude
4,226.447 km
Semi-major axis
10,616.994 km
Eccentricity
0.00117
Inclination
86.9894°
RAAN
245.0164°
Arg. of periapsis
20.6745°
True anomaly
339.40623°
Mean anomaly
339.4533°
Eccentric anomaly
339.42977°
Mean motion
1.984 °/min
Orbital period
181.45 mins
BSTAR
0.027369
Loading maneuver chart data...
Computing Atmospheric mass density...

Documentation

Showing up to 5 results
|